Regional Weather Roundup
Issued by NWS

Home | Current Version | Previous Version | Text Only | Print | Product List | Glossary Off
Versions: 1 2 3 4 5 6 7 8 9 10 11 12 13 14 15 16 17 18 19 20 21 22 23 24 25 26 27 28 29 30 31 32 33 34 35 36 37 38 39 40 41 42 43 44 45 46 47 48 49 50

000
ASUS45 KCYS 240710
RWRWY

WYOMING REGIONAL WEATHER ROUNDUP
NATIONAL WEATHER SERVICE CHEYENNE WY
1200 AM MST MON NOV 24 2014

NOTE:  "FAIR" INDICATES FEW OR NO CLOUDS BELOW 12,000 FEET
WITH NO SIGNIFICANT WEATHER AND/OR OBSTRUCTIONS TO VISIBILITY.

WYZ001-240800-
YELLOWSTONE NATIONAL PARK

CITY           SKY/WX    TMP DP  RH WIND       PRES   REMARKS
LK YELLOWSTONE   N/A     20  14  77 W10G17    29.90F WCI   9
W YELLOWSTONE  NOT AVBL

$$
WYZ002>013-054>058-071-098>099-240800-
NORTHERN WYOMING

CITY           SKY/WX    TMP DP  RH WIND       PRES   REMARKS
JACKSON        CLOUDY    25  25 100 S6        29.97S WCI  18
CODY           CLOUDY    32  21  64 W23G29    29.82F WCI  19
GREYBULL       CLOUDY    27  20  75 SE3       29.87F
WORLAND        CLOUDY    26  17  68 S5        29.87F WCI  20
SHERIDAN       CLOUDY    34  20  56 N7        29.82F WCI  28
BUFFALO        MOCLDY    31  14  49 N18       29.79F WCI  19
GILLETTE       NOT AVBL
HULETT           N/A    N/A N/A N/A MISG        N/A
NEWCASTLE      FAIR      27  18  69 NW12      29.78S WCI  16

$$
WYZ014>020-022>026-101>103-240800-
CENTRAL WYOMING

CITY           SKY/WX    TMP DP  RH WIND       PRES   REMARKS
BIG PINEY      CLOUDY    25  12  58 E3        29.99F
PINEDALE       FLURRIES  14  14 100 CALM      29.99F
DUBOIS         CLOUDY    23  16  74 N9G21     29.88S WCI  13
LANDER         NOT AVBL
RIVERTON       MOCLDY    26  14  60 W7        29.87F WCI  18
CASPER         CLOUDY    26  13  57 MISG      29.86S
DOUGLAS        CLEAR    N/A N/A N/A NW10      29.84S

$$
WYZ021-027>030-104>119-240800-
SOUTHERN WYOMING

CITY           SKY/WX    TMP DP  RH WIND       PRES   REMARKS
EVANSTON       CLOUDY    21  20  96 SW12      30.10F WCI   9
FORT BRIDGER   FAIR      25  21  85 W30G38    30.08S WCI   8
ROCK SPRINGS   MOCLDY    22  16  78 W26       30.01F WCI   5
DIXON          CLOUDY    21  14  75 W5        30.07R WCI  15
RAWLINS        MOCLDY    21  12  68 W26G40    29.92F WCI   4
SARATOGA       FAIR      21  14  73 SW24G30   29.95S WCI   4
LARAMIE        CLEAR     14   6  70 SW9       29.86S WCI   2
CHEYENNE       CLEAR     24   7  48 NW13G21   29.82S WCI  12
TORRINGTON     CLEAR     22  16  78 VRB5      29.82F WCI  16
PINE BLUFFS    FAIR      23  14  68 NW16      29.83F WCI  10

$$


USA.gov is the U.S. government's official web portal to all federal, state and local government web resources and services.